Cloud_Cover
36 0 0 7 3 11 2 0 0 0 0 0 5 5 92 28 7 15 17 26 81 100 100 100 6 5 41 38 100 100 100 66 91 79 48 14 11 94 100 100 100 100 100
1 6 0 0 6 2 0 0 0 0 0 5 6 5 86 34 7 87 64 97 86 62 31 1 4 5 1 1 100 99 46 99 21 19 29 100 100 100 91 49 92 100 100
0 0 2 0 0 0 0 0 2 3 2 1 2 10 4 44 8 0 82 32 2 4 5 3 48 67 1 0 20 93 53 96 40 87 63 5 31 94 84 100 97 86 43
0 0 0 0 0 3 8 0 0 8 4 10 1 0 2 7 8 34 7 90 72 0 1 40 3 5 4 9 0 0 11 16 1 2 20 40 92 78 30 97 100 100 99
1 1 0 0 0 0 0 0 0 0 4 0 4 0 0 0 0 0 0 3 23 0 2 0 5 4 5 4 3 4 1 1 6 79 90 65 99 100 100 94 11 36 57
25 0 0 0 6 0 0 0 0 0 23 10 0 3 0 0 0 0 0 0 0 0 0 0 0 0 0 0 0 7 75 61 100 100 100 100 60 62 93 5 5 6 5
1 0 0 0 13 0 0 0 0 0 3 6 1 6 8 1 0 0 0 0 0 0 0 0 0 0 0 0 2 94 95 100 100 100 100 100 100 2 41 4 5 5 15
3 0 1 0 1 0 0 10 0 3 3 0 0 0 0 0 0 0 0 0 2 0 0 0 0 0 4 4 5 5 20 93 100 100 100 100 100 100 100 5 1 1 5
1 0 0 3 0 0 0 8 0 17 15 0 0 0 0 0 0 0 7 94 100 100 65 0 1 61 12 3 8 5 100 100 100 100 100 100 100 100 100 92 96 98 90
3 0 0 0 0 0 0 4 1 0 0 0 0 0 0 1 0 0 100 100 100 100 100 100 100 100 100 0 5 34 96 100 100 100 100 100 100 100 100 56 5 10 98
75 0 0 1 100 0 0 7 3 5 0 0 0 0 99 100 2 97 100 100 100 100 100 100 100 100 100 100 93 28 98 100 100 100 100 100 100 100 96 3 0 0 5
26 14 0 0 26 2 20 0 0 3 4 0 0 0 0 25 1 100 100 100 100 100 100 100 100 100 100 100 100 100 100 100 100 100 100 100 100 88 1 0 0 0 2
2 15 0 0 0 20 0 0 0 7 4 2 0 82 80 2 2 100 100 100 100 100 100 100 54 95 100 100 65 33 100 100 100 58 91 4 2 0 0 0 0 0 1
17 8 0 0 0 100 0 4 17 100 0 0 47 100 100 18 72 94 100 100 100 100 100 79 6 42 100 100 67 14 5 4 21 100 4 0 2 0 0 0 0 0 4
0 2 0 0 0 3 1 18 100 10 20 0 0 79 90 87 1 1 99 100 100 68 58 74 70 48 23 55 100 100 69 100 100 100 100 100 44 5 65 20 9 36 43
0 0 0 0 0 0 0 0 0 0 84 1 22 0 0 41 7 5 46 33 56 66 81 88 6 11 5 5 5 9 81 58 55 71 100 100 100 17 100 100 100 96 78
0 0 0 0 0 0 0 0 0 0 0 98 3 0 0 0 0 3 61 100 100 100 87 74 72 5 1 4 5 5 11 100 100 100 100 100 100 100 87 92 100 99 100
0 0 0 0 0 0 0 0 0 0 0 32 93 0 0 0 0 2 39 39 100 99 99 30 10 5 50 80 49 5 83 91 100 100 100 100 100 100 100 100 100 86 80
0 0 0 0 0 0 0 0 0 0 0 39 8 60 0 0 3 0 2 22 99 100 100 77 99 25 100 15 17 5 4 16 100 100 99 100 100 100 100 100 100 100 100
0 0 0 0 0 0 0 0 0 0 0 13 59 1 16 0 60 0 0 67 100 100 100 100 90 100 100 73 83 6 0 12 0 70 26 91 100 100 100 100 100 100 100
0 0 0 0 0 0 0 0 0 0 0 0 0 56 12 0 72 46 0 77 100 100 100 100 100 99 100 100 100 99 3 0 100 67 1 3 2 23 100 100 100 100 100
0 0 0 0 0 0 0 0 0 11 85 44 0 51 0 10 7 0 39 0 41 100 100 100 100 100 100 100 100 100 43 0 16 0 0 6 0 1 24 66 51 1 0
0 0 0 0 0 0 0 0 0 0 67 55 0 0 0 0 0 0 0 0 5 37 29 13 99 100 100 100 100 100 64 20 0 0 0 37 31 27 64 70 64 0 0
0 0 0 0 0 0 0 0 0 0 0 0 0 0 0 0 0 0 0 0 0 5 5 9 13 100 100 100 89 11 4 4 3 6 0 0 15 18 96 17 5 59 54
0 0 0 0 0 0 0 0 0 0 0 0 0 0 0 0 0 0 0 0 3 6 33 66 100 100 100 98 96 8 0 5 1 6 15 0 0 3 53 1 83 25 97
0 0 0 0 0 0 0 0 0 0 0 0 0 0 0 0 0 0 0 0 0 5 9 95 100 100 100 100 74 5 2 4 6 34 44 2 0 0 90 78 100 50 4